Ephrata, WA
on Sunday, November 18, 2012

Sunday
Previous Day Next Day
Daily Summary
 ActualAverageRecord
Temperature
Mean Temperature °F 36°F  
Max Temperature 47°F 44°F 64°F (2003)
Min Temperature 31°F 28°F 10°F (2014)
Degree Days
Heating Degree Days 26 29  
Month to date heating degree days 428 459  
Since 1 July heating degree days 923 1040  
Cooling Degree Days 0 0  
Month to date cooling degree days 0 0  
Year to date cooling degree days 837 772  
Moisture
Dew Point 35°F   
Average Humidity 83    
Maximum Humidity 100    
Minimum Humidity 65    
Precipitation
Precipitation 0.09 in 0.04 in 0.42 in (1982)
Month to date precipitation 0.71 0.60  
Year to date precipitation 6.57 6.15  
Wind
Wind Speed 7 mph   
Max Wind Speed 29 mph   
Max Gust Speed 37 mph   
Visibility 10 miles   
Events Rain   

Key: T is trace of precipitation, MM is missing value
Source: NWS Daily Summary
Time(PST)TemperatureDew PointHumidity Pressure Visibility Wind DirectionWind SpeedGust SpeedPrecipitationEvents Conditions
12:53 AM 37.9°F 34.0°F 86% 29.73 in 10.0 miles South 5.8 mph - N/A   Clear
1:53 AM 36.0°F 33.1°F 89% 29.75 in 10.0 miles South 4.6 mph - N/A   Clear
2:53 AM 36.0°F 32.0°F 86% 29.78 in 10.0 miles Calm Calm - N/A   Clear
3:53 AM 34.0°F 30.9°F 89% 29.80 in 10.0 miles SW 10.4 mph - N/A   Clear
4:53 AM 34.0°F 30.9°F 89% 29.83 in 10.0 miles SW 6.9 mph - N/A   Clear
5:53 AM 33.1°F 30.9°F 92% 29.84 in 10.0 miles SE 3.5 mph - N/A   Clear
6:53 AM 30.9°F 30.0°F 96% 29.86 in 10.0 miles Calm Calm - N/A   Partly Cloudy
7:53 AM 33.1°F 30.9°F 92% 29.88 in 10.0 miles NNW 3.5 mph - N/A   Clear
8:53 AM 34.0°F 32.0°F 92% 29.88 in 10.0 miles Calm Calm - N/A   Partly Cloudy
9:53 AM 36.0°F 34.0°F 93% 29.88 in 10.0 miles NE 4.6 mph - N/A   Overcast
10:53 AM 39.0°F 35.1°F 86% 29.88 in 10.0 miles NNE 4.6 mph - N/A   Mostly Cloudy
11:53 AM 41.0°F 35.1°F 79% 29.86 in 10.0 miles Calm Calm - N/A   Overcast
12:53 PM 46.0°F 35.1°F 66% 29.85 in 10.0 miles South 15.0 mph - N/A   Scattered Clouds
1:53 PM 45.0°F 35.1°F 68% 29.83 in 10.0 miles South 9.2 mph - N/A   Clear
2:53 PM 45.0°F 36.0°F 71% 29.83 in 10.0 miles South 10.4 mph - N/A   Scattered Clouds
3:53 PM 44.1°F 36.0°F 73% 29.83 in 10.0 miles SE 3.5 mph - N/A   Overcast
4:53 PM 43.0°F 37.0°F 80% 29.82 in 10.0 miles Calm Calm - N/A   Overcast
5:53 PM 45.0°F 37.0°F 74% 29.81 in 10.0 miles SSE 3.5 mph - 0.00 in Rain Light Rain
6:53 PM 46.9°F 36.0°F 66% 29.78 in 10.0 miles South 13.8 mph 24.2 mph 0.01 in Rain Light Rain
7:53 PM 46.9°F 37.0°F 68% 29.77 in 7.0 miles South 24.2 mph 33.4 mph 0.02 in Rain Rain
8:53 PM 44.1°F 39.0°F 82% 29.78 in 10.0 miles South 17.3 mph - 0.05 in Rain Light Rain
9:53 PM 44.1°F 39.0°F 82% 29.78 in 10.0 miles South 10.4 mph - 0.01 in   Overcast
10:53 PM 44.1°F 39.0°F 82% 29.76 in 10.0 miles South 12.7 mph - N/A   Overcast
11:53 PM 45.0°F 39.9°F 82% 29.74 in 10.0 miles South 15.0 mph - 0.00 in Rain Light Rain
Moon Phase
Nov. 18 Nov. 20 Nov. 28 Dec. 06 Dec. 13
Sunrise:07:07 AM (PST) Moon Rise:11:32 AM (PST)11/18
Sunset:04:18 PM (PST) Moon Set:09:50 PM (PST)11/18

Copyright © 2014 The Weather Underground, Inc.